Terminal Aerodrome Forecast
Issued by NWS Upton, NY

Home | Current Version | Previous Version | Text Only | Print | Product List | Glossary On
Versions: 1 2 3 4 5 6 7 8 9 10 11 12 13 14 15 16 17 18 19 20 21 22 23 24 25
126
FTUS41 KOKX 231720
TAFISP
TAF
KISP 231720Z 2318/2418 14005KT P6SM SCT250
     FM231900 18008KT P6SM SCT250
     FM240000 19005KT P6SM BKN250
     FM240400 VRB03KT P6SM BKN200
     FM241500 10007KT P6SM BKN150=

USA.gov is the U.S. government's official web portal to all federal, state and local government web resources and services.